Regional Weather Roundup
Issued by NWS State College, PA

Home | Current Version | Previous Version | Text Only | Print | Product List | Glossary Off
Versions: 1 2 3 4 5 6 7 8 9 10 11 12 13 14 15 16 17 18 19 20 21 22 23 24 25 26 27 28 29 30 31 32 33 34 35 36 37 38 39 40 41 42 43 44 45 46 47 48 49 50

000
ASUS41 KCTP 170103
RWRCTP

REGIONAL WEATHER ROUNDUP
NATIONAL WEATHER SERVICE STATE COLLEGE PA
800 PM EST MON JAN 16 2017

Note: "fair" indicates few or no clouds below 12,000 feet with no
significant weather and/or obstructions to visibility.

* = STATION THAT DOES NOT REPORT PRECIPITATION /E.G. RAIN...SNOW...ETC/
    THUNDER OR FOG.

PAZ002>004-007>009-013>016-020>023-029>032-170200-
WESTERN PENNSYLVANIA

CITY           SKY/WX    TMP DP  RH WIND       PRES   REMARKS
ERIE           CLOUDY    34  29  82 E8        30.23F
MEADVILLE      CLOUDY    37  23  56 VRB3      30.20F
FRANKLIN*        N/A     34  28  80 E3        30.23F
NEW CASTLE     MIX PCPN  35  31  85 CALM      30.22F
BEAVER COUNTY  NOT AVBL
BUTLER*        CLOUDY    37  32  81 CALM      30.25S
PITTSBURGH INT CLOUDY    37  34  89 E3        30.21F
PITTSBURGH     CLOUDY    38  33  82 E3        30.21F
INDIANA*       CLOUDY    37  37 100 E5        30.25F
LATROBE        FOG       37  37 100 CALM      30.24F VSB 3/4
WASHINGTON CO* CLOUDY    37  34  87 NE3       30.22F
$$

PAZ004>006-010>012-017>019-024>028-033>037-041-042-045-046-049>053-170200-
CENTRAL PENNSYLVANIA

CITY           SKY/WX    TMP DP  RH WIND       PRES   REMARKS
BRADFORD       CLOUDY    34  29  82 CALM      30.21S
DUBOIS         CLOUDY    35  27  72 E5        30.21F
CLEARFIELD     CLOUDY    35  27  72 CALM      30.25S
JOHNSTOWN      FOG       35  35 100 CALM      30.21S VSB 1/4
ALTOONA        CLOUDY    34  33  96 CALM      30.27S FOG
STATE COLLEGE  CLOUDY    34  28  80 W5        30.29F
WILLIAMSPORT   CLOUDY    36  25  64 NE3       30.32S
SELINSGROVE    CLOUDY    35  26  69 CALM      30.34S
FT INDIANTOWN  CLOUDY    34  28  78 CALM      30.33S
CAPITAL CITY   CLOUDY    37  27  67 E3        30.33F
HARRISBURG     MOCLDY    36  28  73 SE3       30.33F
YORK           CLOUDY    36  31  82 CALM      30.32F
$$

PAZ038>040-043-044-047-048-054-055-060>062-067>071-170200-
EASTERN PENNSYLVANIA

CITY           SKY/WX    TMP DP  RH WIND       PRES   REMARKS
SCRANTON       CLOUDY    36  30  79 W6        30.29S
MOUNT POCONO   CLOUDY    32  23  69 W5        30.24F
ALLENTOWN      CLOUDY    37  25  61 W6        30.34R
QUAKERTOWN*    CLOUDY    37  25  60 SW3       30.34R
READING        CLOUDY    37  23  56 CALM      30.34R
LANCASTER      CLOUDY    36  29  75 E3        30.33F
COATESVILLE    CLOUDY    34  25  69 CALM      30.34F
POTTSTOWN      CLOUDY    36  22  56 SW3       30.35S
BLUE BELL      CLOUDY    36  25  64 CALM      30.34S
DOYLESTOWN     CLOUDY    40  24  53 SW6       30.33R
WILLOW GROVE   NOT AVBL
NORTH PHILA    CLOUDY    41  24  51 SW5       30.37S
PHILADELPHIA   CLOUDY    38  26  62 SW6       30.37S
$$




USA.gov is the U.S. government's official web portal to all federal, state and local government web resources and services.